Location: Boo
(59.3083°N, 18.2784°E)
Time: 10:49:42
(UTC+01:00)

N. Korean satellite - Visible Passes

Search period start: 08 December 2022 00:00
Search period end: 18 December 2022 00:00
Orbit: 421 x 452 km, 97.3° (Epoch: 07 December)

Date Brightness Start Highest point End Pass type
(mag) Time Alt. Az. Time Alt. Az. Time Alt. Az.
08 Dec 7.8 04:55:17 10° NNE 04:58:31 38° E 05:01:43 10° SSE visible
08 Dec 7.3 06:27:58 10° N 06:30:57 28° WNW 06:33:52 10° WSW visible
08 Dec 9.4 17:06:45 10° SW 17:09:16 19° W 17:11:48 10° NW visible
09 Dec 9.3 04:16:48 10° NE 04:19:10 17° E 04:21:29 10° SE visible
09 Dec 6.3 05:48:38 10° N 05:52:01 62° WNW 05:55:21 10° SSW visible
09 Dec 8.4 07:22:36 10° NNW 07:23:51 12° NW 07:25:06 10° WNW visible
09 Dec 7.8 16:26:37 10° S 16:29:53 42° W 16:33:11 10° NNW visible
10 Dec 7.1 05:09:30 10° NNE 05:12:51 53° E 05:16:10 10° S visible
10 Dec 7.6 06:42:26 10° N 06:45:06 22° WNW 06:47:45 10° WSW visible
10 Dec 6.4 15:47:15 10° SSE 15:50:40 79° ENE 15:54:06 10° NNW visible
10 Dec 9.7 17:21:40 10° WSW 17:23:37 14° W 17:25:35 10° NW visible
11 Dec 8.9 04:30:41 10° NE 04:33:27 23° E 04:36:10 10° SSE visible
11 Dec 6.6 06:02:51 10° N 06:06:08 45° WNW 06:09:21 10° SW visible
11 Dec 8.5 16:40:59 10° SSW 16:44:04 31° W 16:47:11 10° NNW visible
12 Dec 9.9 03:53:11 10° ENE 03:53:46 10° E 03:54:22 10° E visible
12 Dec 6.5 05:23:31 10° NNE 05:26:56 74° ESE 05:30:17 10° S visible
12 Dec 7.9 06:56:44 10° NNW 06:59:02 17° NW 07:01:18 10° W visible
12 Dec 6.6 16:01:15 10° S 16:04:40 76° WSW 16:08:06 10° NNW visible
12 Dec 10.0 17:36:50 10° W 17:37:47 11° W 17:38:45 10° WNW visible
13 Dec 8.3 04:44:27 10° NNE 04:47:29 30° E 04:50:28 10° SSE visible
13 Dec 7.0 06:16:54 10° N 06:20:00 34° WNW 06:23:04 10° SW visible
13 Dec 9.0 16:55:14 10° SSW 16:58:03 23° W 17:00:53 10° NW visible
14 Dec 9.6 04:05:58 10° NE 04:07:46 14° E 04:08:10 13° E visible
14 Dec 6.2 05:37:21 10° NNE 05:40:45 81° WNW 05:41:27 53° SSW visible
14 Dec 8.2 07:10:54 10° NNW 07:12:42 14° NW 07:14:28 10° W visible
14 Dec 7.2 16:15:06 10° S 16:18:28 55° W 16:21:50 10° NNW visible
15 Dec 7.7 04:58:02 10° NNE 05:05:27 - S 05:01:00 39° E visible
15 Dec 7.3 06:30:45 10° N 06:33:37 26° WNW 06:34:20 24° W visible
15 Dec 9.5 17:09:24 10° SW 17:11:49 18° W 17:14:15 10° NW visible
16 Dec 9.3 04:19:09 10° NE 04:26:08 - SSE 04:20:42 16° ENE visible
16 Dec 6.4 05:50:59 10° N 05:59:30 - SSW 05:54:01 55° NW visible
16 Dec 8.4 07:25:07 10° NNW 07:26:07 11° NW 07:27:06 10° WNW visible
16 Dec 7.9 16:28:49 10° S 16:32:03 40° W 16:35:19 10° NNW visible
17 Dec 7.6 05:11:27 10° NNE 05:20:01 - S 05:13:45 36° NE visible
17 Dec 7.6 06:44:25 10° N 06:47:00 21° WNW 06:47:04 21° WNW visible
17 Dec 6.4 15:49:02 10° SSE 15:52:26 81° ENE 15:55:51 10° NNW visible
17 Dec 9.7 17:23:32 10° WSW 17:25:23 14° W 17:27:15 10° NW visible
